Location: Namasale
(1.5000°N, 32.6167°E)
Time: 21:54:24
(UTC+00:00)

Transit 2A - Pass Details

Date: 22 April 2021
Orbit: 602 x 957 km, 66.7° (Epoch: 11 May)

Event Time Altitude Azimuth Distance (km) Brightness Sun altitude
Rises 15:37:58 0° 312° (NW) 3,101 10.4 2.8°
Reaches altitude 10° 15:40:46 10° 295° (WNW) 2,249 10.4 2.1°
Maximum altitude 15:44:31 20° 248° (WSW) 1,733 8.8 1.2°
Drops below altitude 10° 15:48:32 10° 202° (SSW) 2,431 8.7 0.2°
Sets 15:51:44 0° 186° (S) 3,435 9.3 -0.6°
